#timestamp,LO_Frequency,Hit,StdDev 
1559001615.8,286047002.1,N
1559001635.6,286047002.0,N
1559001655.2,286047002.3,N
1559001675.1,286046999.8,N
1559001676.0,286046999.8,N
1559001695.8,286047002.5,N
1559001715.6,286047001.7,N
1559001735.5,286047002.2,N
1559001755.3,286047000.0,N
1559001775.2,286047000.0,N
1559001795.9,286046999.8,N
1559001815.7,286046998.2,N
1559001835.6,286047000.8,N
1559001855.4,286047000.2,N
1559001875.2,286047002.8,N
1559001895.1,286047002.5,N
1559001896.0,286047002.5,N
1559001915.8,286046999.8,N
1559001935.7,286046999.9,N
1559001955.5,286046999.8,N
1559001975.3,286046999.7,N
1559001995.2,286046999.8,N
1559002015.0,286047002.3,N
1559002015.9,286047002.3,N
1559002035.7,286047001.6,N
1559002055.6,286047003.2,N
1559002075.4,286047002.6,N
1559002095.3,286047001.2,N
1559002115.1,286046998.6,N
1559002116.0,286046998.6,N
1559002135.8,286047000.2,N
1559002155.7,286046998.4,N
1559002175.5,286046999.6,N
1559002195.4,286047001.1,N
1559002215.2,286047001.2,N
1559002235.0,286046998.3,N
1559002235.9,286046998.3,N
1559002255.8,286046999.6,N
1559002275.6,286046997.0,N
1559002295.4,286046996.5,N
1559002315.3,286046998.7,N
1559002335.1,286046998.3,N
1559002355.9,286046998.3,N
1559002375.7,286047002.8,N
1559002395.5,286046999.8,N
1559002415.4,286047000.1,N
1559002435.5,286046998.1,N
1559002455.4,286046998.5,N
1559002475.2,286047000.8,N
1559002495.0,286047002.4,N
1559002495.9,286047002.4,N
1559002515.8,286047001.7,N
1559002535.6,286047001.0,N
1559002555.4,286046998.4,N
1559002575.3,286046999.0,N
1559002595.1,286047001.0,N
1559002615.9,286046998.6,N
1559002635.7,286047000.4,N
1559002655.5,286047001.6,N
1559002675.4,286047002.3,N
1559002695.2,286047000.0,N
1559002715.0,286046998.5,N
1559002715.9,286046998.5,N
1559002735.8,286047000.5,N
1559002755.6,286047002.7,N
1559002775.5,286047003.7,N
1559002795.3,286047000.2,N
1559002815.1,286047002.6,N
1559002835.9,286047002.8,N
1559002855.7,286046998.1,N
1559002875.6,286047002.8,N
1559002895.4,286047001.2,N
1559002915.2,286046998.6,N
1559002935.1,286047000.5,N
1559002936.0,286047000.5,N
1559002955.6,286046999.7,N
1559002975.4,286046999.7,N
1559002995.2,286047001.1,N
1559003015.1,286047000.2,N
1559003016.0,286047000.2,N
1559003035.8,286047000.8,N
1559003055.7,286047000.2,N
1559003075.5,286046998.9,N
1559003095.3,286046998.8,N
1559003115.2,286047002.4,N
1559003135.0,286047001.8,N
1559003135.9,286047001.8,N
1559003155.7,286047003.5,N
1559003175.6,286047001.9,N
1559003195.4,286047004.4,N
1559003215.3,286047003.3,N
1559003235.1,286047003.6,N
1559003236.0,286047003.6,N
1559003255.8,286047003.6,N
1559003275.7,286047002.9,N
1559003295.5,286047005.5,Y
1559003315.4,286047003.9,P
1559003335.2,286047002.1,N
1559003355.0,286047000.0,N
1559003355.9,286047000.0,N
1559003375.8,286047001.7,N
1559003395.6,286047001.4,N
1559003415.4,286047002.3,N
1559003435.3,286047003.7,Y
1559003455.1,286047002.7,P
1559003475.9,286047001.8,P
1559003495.7,286047002.8,P
1559003515.5,286047000.4,N
1559003535.4,286047002.8,Y
1559003555.2,286046998.3,P
1559003575.1,286046998.2,N
1559003576.0,286046998.2,N
1559003595.8,286046998.6,N
1559003615.6,286046998.6,N
1559003635.5,286047000.9,N
1559003655.3,286047000.2,N
1559003675.1,286046999.7,N
1559003695.9,286046998.5,N
1559003715.7,286046996.6,N
1559003735.6,286046998.8,N
1559003755.4,286046999.3,N
1559003775.2,286047001.0,N
1559003795.1,286047000.0,N
1559003796.0,286047000.0,N
1559003815.8,286046998.2,N
1559003835.6,286047001.1,N
1559003855.5,286047000.5,N
1559003875.3,286046998.6,N
1559003895.2,286046996.7,N
1559003915.0,286046996.5,N
1559003915.9,286046996.5,N
1559003935.7,286046998.0,N
1559003955.6,286046997.7,N
1559003975.4,286046994.9,Y
1559003995.3,286046995.3,P
1559004015.1,286046997.5,N
1559004035.9,286046995.2,P
1559004055.7,286046995.3,Y
1559004075.5,286046998.3,P
1559004095.4,286046997.8,N
1559004115.2,286046996.5,P
1559004135.0,286046996.5,Y
1559004136.0,286046996.5,P
1559004155.8,286047000.4,N
1559004175.6,286047000.8,N
1559004195.5,286047000.5,N
1559004215.3,286047000.2,N
1559004235.1,286047000.4,N
1559004255.9,286047001.0,N
1559004275.7,286047000.3,N
1559004295.6,286047000.6,N
1559004315.4,286047000.0,N
1559004335.2,286046998.5,N
1559004355.1,286047002.6,N
1559004356.0,286047002.6,N
1559004375.8,286047000.8,N
1559004395.7,286046999.3,N
1559004415.5,286046999.0,N
1559004435.3,286046998.7,N
1559004455.2,286046996.9,N
1559004475.9,286047000.8,N
1559004495.7,286047002.7,N
1559004515.6,286046999.8,N
1559004535.4,286046998.6,N
1559004555.2,286047002.4,N
1559004575.1,286047002.1,N
1559004576.0,286047002.1,N
1559004595.8,286046999.9,N
1559004615.7,286046998.4,N
1559004635.5,286047000.9,N
1559004655.3,286046998.6,N
1559004675.2,286047000.8,N
1559004695.0,286046998.2,N
1559004695.9,286046998.2,N
1559004715.7,286047002.8,N
1559004735.6,286047000.7,N
1559004755.4,286047002.7,N
1559004775.3,286046999.9,N
1559004795.1,286047002.8,N
1559004796.0,286047002.8,N
1559004815.8,286047001.1,N
1559004835.7,286047000.4,N
1559004855.5,286046999.8,N
1559004875.3,286047001.0,N
1559004895.2,286046999.9,N
1559004915.0,286047000.8,N
1559004915.9,286047000.8,N
1559004935.8,286047002.7,N
1559004955.6,286046999.7,N
1559004975.4,286047000.3,N
1559004995.3,286046998.2,N
1559005015.1,286047000.5,N
1559005035.9,286046998.9,N
1559005055.7,286046998.4,N
1559005075.5,286046998.8,N
1559005095.4,286046998.5,N
1559005115.2,286046998.3,N
1559005135.0,286046998.4,N
1559005135.9,286046998.4,N
1559005155.8,286046996.9,N
1559005175.6,286046996.5,N
1559005195.5,286046999.7,N
